Find Starlink 2257

NORAD ID: 47787 Int'l Des: 2021-018 Owner: SPXS Country: US Constellation: starlink operational
LEOCIRCULAR

当前视图

正在加载3D地球...

About Starlink 2257

Starlink 2257 (NORAD 47787) is a starlink constellation satellite (v1.0) launched Mar 11, 2021 by SPXS of US. It operates in LEO, CIRCULAR orbit with a mass of 260.00 kg.

即将过境

Passes for default location (London). Set your location on the main map for personalized predictions.

高度历史

Loading altitude history...

两行轨道根数

1 47787U 21018A 26265.71682169 .00000969 00000-0 42983-4 0 9990
2 47787 53.1601 48.7617 0001119 82.9777 277.1352 15.31695866306877
Epoch: Sep 22, 2026 • Age: 12 hours

当前状态

高度 474.1 km
远地点 / 近地点 N/A
速度 7.63 km/s
星下点 -11.52°S, 157.99°E
发射日期 Mar 11, 2021
运行时间 5.5 years
类型 internet

技术详情

分类 Payload
质量 260.00 kg
干质量 248.00 kg
长度 0.20 m
跨度 9.00 m
形状 ? Box + pan
制造商 SPXS
平台类型 Starlink
阶段状态 In Orbit
所有者/国家 SPXS/US

Most Searched